Regional Weather Roundup
Issued by NWS

Home | Current Version | Previous Version | Text Only | Print | Product List | Glossary On
Versions: 1 2 3 4 5 6 7 8 9 10 11 12 13 14 15 16 17 18 19 20 21 22 23 24 25 26 27 28 29 30 31 32 33 34 35 36 37 38 39 40 41 42 43 44 45 46 47 48 49 50
000
ASUS43 KTOP 060208
RWRKS

WEATHER ROUNDUP FOR KANSAS
NATIONAL WEATHER SERVICE GOODLAND KS
900 PM CDT TUE MAY 05 2015

NOTE:  "FAIR" INDICATES FEW OR NO CLOUDS BELOW 12,000 FEET WITH NO
SIGNIFICANT WEATHER AND/OR OBSTRUCTIONS TO VISIBILITY.

KSZ001>006-013>018-027>032-041>047-060300-
NORTHWEST KANSAS

CITY           SKY/WX    TMP DP  RH WIND       PRES   REMARKS
GOODLAND       LGT RAIN  56  55  97 SE16G26   29.77S
HAYS           CLOUDY    61  54  77 SE20G26   29.86S
HILL CITY      LGT RAIN  60  58  92 SE17G26   29.82F FOG
RUSSELL        CLOUDY    61  59  93 SE20      29.86F
$$

KSZ061>065-074>080-084>089-060300-
SOUTHWEST KANSAS

CITY           SKY/WX    TMP DP  RH WIND       PRES   REMARKS
DODGE CITY     CLOUDY    61  57  87 SE21G30   29.83S
ELKHART          N/A     59  50  72 S8          N/A
GARDEN CITY    CLOUDY    59  58  96 SE18      29.79R
GREAT BEND     CLOUDY    63  57  82 SE17G23   29.88R
LIBERAL        MOCLDY    61  54  77 SW23G30   29.85R
PRATT          CLOUDY    61  59  94 S20G26    29.89F
$$

KSZ066>073-081>083-090>101-060300-
SOUTHEAST KANSAS

CITY           SKY/WX    TMP DP  RH WIND       PRES   REMARKS
CHANUTE        CLOUDY    67  65  93 SE7       30.00R
COFFEYVILLE    LGT RAIN  67  64  90 S8        30.00R
HUTCHINSON     CLOUDY    64  59  83 SE14      29.92R
MEDICINE LODGE   N/A     63  61  93 S13G20    29.89R
NEWTON         MOCLDY    63  55  77 SE12      29.96R
PARSONS        LGT RAIN  68  66  93 VRB3      30.01R
WICHITA INTL   CLOUDY    64  60  87 SE13      29.92R
WICHITA JABRA  CLOUDY    63  59  87 SE14      29.93R
WICHITA MCCONL CLOUDY    64  60  86 SE15      29.93S
WINFIELD       LGT RAIN  64  61  90 SE15G23   29.95R
$$

KSZ007>012-019>026-033>040-048>060-102>105-060300-
NORTHEAST KANSAS

CITY           SKY/WX    TMP DP  RH WIND       PRES   REMARKS
CONCORDIA      LGT RAIN  63  57  81 SE6       29.93R
EMPORIA        LGT RAIN  67  62  84 SE14      29.97R
LAWRENCE       LGT RAIN  65  63  93 E8        30.02R
MANHATTAN      LGT RAIN  69  61  75 SE8       29.93S
MARYSVILLE     CLOUDY    64  61  88 SE9       29.95R
OLATHE IND     LGT RAIN  65  63  93 E6        30.03F
OLATHE EXE     LGT RAIN  65  64  97 S6        30.03R FOG
SALINA         CLOUDY    64  56  75 SE7       29.93R
TOPEKA BILLARD CLOUDY    65  61  87 SE13      30.00R
TOPEKA FORBES  CLOUDY    65  61  87 SE9       29.99R
$$



USA.gov is the U.S. government's official web portal to all federal, state and local government web resources and services.